Location: Unspecified
(10.5339°N, 0.0000°E)
Time: 02:06:30
(UTC+00:00)

Explorer 7 - All Passes

Search period start: 04 April 2026 00:00
Search period end: 14 April 2026 00:00
Orbit: 429 x 539 km, 50.2° (Epoch: 29 March)

Date Brightness Start Highest point End Pass type
(mag) Time Alt. Az. Time Alt. Az. Time Alt. Az.
4 Apr - 05:02:33 10° NNW 05:05:40 31° NE 05:08:44 10° ESE visible
4 Apr - 18:30:46 10° SW 18:34:50 88° WNW 18:38:55 10° NE visible
5 Apr - 04:35:37 10° N 04:38:38 27° NE 04:41:37 10° ESE visible
5 Apr - 06:15:53 10° WSW 06:16:41 11° SW 06:17:28 10° SW daylight
5 Apr - 18:03:42 10° SW 18:07:46 83° SE 18:11:50 10° NE daylight
6 Apr - 04:08:38 10° N 04:11:34 25° NE 04:14:28 10° ESE visible
6 Apr - 05:48:14 10° W 05:49:38 12° SW 05:51:02 10° SSW daylight
6 Apr - 17:36:37 10° SSW 17:40:40 74° SE 17:44:43 10° NE daylight
7 Apr - 03:41:39 10° N 03:44:28 22° NE 03:47:15 10° ESE visible
7 Apr - 05:20:44 10° W 05:22:33 14° SW 05:24:20 10° SSW visible
7 Apr - 17:09:31 10° SSW 17:13:32 66° SE 17:17:34 10° NE daylight
8 Apr - 03:14:39 10° N 03:17:20 20° NE 03:19:59 10° E night (unlit)
8 Apr - 04:53:20 10° W 04:55:26 15° SW 04:57:32 10° SSW visible
8 Apr - 16:42:23 10° SSW 16:46:22 58° SE 16:50:23 10° NE daylight
9 Apr - 02:47:38 10° N 02:50:11 18° NE 02:52:40 10° E night (unlit)
9 Apr - 04:25:55 10° W 04:28:18 17° SW 04:30:39 10° S visible
9 Apr - 16:15:16 10° SSW 16:19:10 51° SE 16:23:09 10° NE daylight
9 Apr - 17:57:12 10° NW 17:57:35 10° NW 17:57:58 10° NW daylight
10 Apr - 02:20:37 10° N 02:22:59 17° NE 02:25:19 10° E night (unlit)
10 Apr - 03:58:32 10° WNW 04:01:08 19° SW 04:03:42 10° S night (unlit)
10 Apr - 15:48:07 10° SSW 15:51:58 45° SE 15:55:52 10° NE daylight
10 Apr - 17:29:03 10° WNW 17:30:21 11° NW 17:31:38 10° NNW daylight
11 Apr - 01:53:36 10° N 01:55:46 15° NE 01:57:54 10° E night (unlit)
11 Apr - 03:31:09 10° WNW 03:33:56 22° SW 03:36:42 10° S night (unlit)
11 Apr - 15:20:58 10° SSW 15:24:43 40° SE 15:28:33 10° NE daylight
11 Apr - 17:01:19 10° WNW 17:03:04 12° NW 17:04:50 10° NNW daylight
12 Apr - 01:26:36 10° NNE 01:28:30 14° NE 01:30:23 10° E night (unlit)
12 Apr - 03:03:45 10° WNW 03:06:43 25° SW 03:09:37 10° S night (unlit)
12 Apr - 14:53:47 10° SSW 14:57:27 35° SE 15:01:11 10° ENE daylight
12 Apr - 16:33:40 10° W 16:35:47 14° NW 16:37:54 10° NNW daylight
13 Apr - 00:59:37 10° NNE 01:01:13 12° NE 01:02:47 10° ENE night (unlit)
13 Apr - 02:36:20 10° WNW 02:39:27 28° SW 02:42:30 10° S night (unlit)
13 Apr - 14:26:37 10° S 14:30:09 32° SE 14:33:46 10° ENE daylight
13 Apr - 16:06:03 10° W 16:08:27 15° NW 16:10:51 10° NNW daylight
